Regional Weather Roundup
Issued by NWS

Home | Current Version | Previous Version | Graphics & Text | Print | Product List | Glossary On
Versions: 1 2 3 4 5 6 7 8 9 10 11 12 13 14 15 16 17 18 19 20 21 22 23 24 25 26 27 28 29 30 31 32 33 34 35 36 37 38 39 40 41 42 43 44 45 46 47 48 49 50
000
ASUS43 KDTX 221901
RWRMI
MICHIGAN HOURLY REGIONAL WEATHER ROUNDUP
NATIONAL WEATHER SERVICE DETROIT/PONTIAC MI
300 PM EDT SUN OCT 22 2017

NOTE: "FAIR" INDICATES FEW OR NO CLOUDS BELOW 12,000 FEET WITH NO
SIGNIFICANT WEATHER AND/OR OBSTRUCTION TO VISIBILITY.

MIZ047>049-052>055-059>063-066>070-074>076-081>083-222000-
SOUTHEAST LOWER MICHIGAN

CITY           SKY/WX    TMP DP  RH WIND       PRES   REMARKS
ADRIAN         SUNNY     77  55  46 SW20G25   30.06F
ALMA           MOSUNNY   77  56  47 S14G28    29.98F
ANN ARBOR      SUNNY     77  58  51 SE21      30.05F
BAD AXE        SUNNY     74  48  39 S17G26    30.03F
CARO           SUNNY     76  54  45 S15G25    30.01F
DETROIT CITY   SUNNY     75  57  53 S17       30.08F
DETROIT        MOSUNNY   76  57  51 S17       30.08F
FLINT          SUNNY     76  56  49 SW22G30   30.02F
GROSSE ILE     SUNNY     70  59  68 S8        30.08F
HILLSDALE      MOSUNNY   75  54  46 S16G22    30.04F
HOWELL         SUNNY     76  57  52 S14G23    30.03F

CITY           SKY/WX    TMP DP  RH WIND       PRES   REMARKS
JACKSON        MOSUNNY   76  57  51 S20G26    30.03F
LAMBERTVILLE   SUNNY     81  55  40 SW8G18    30.07F
LANSING        PTSUNNY   76  57  51 S16G24    30.01F
LAPEER         FAIR      74  55  50 SW17G24   30.04F
MASON          PTSUNNY   77  57  50 S13G20    30.02F
MONROE         SUNNY     79  55  44 S16G22    30.06F
PONTIAC        PTSUNNY   75  57  53 S10G22    30.05F
PORT HOPE        N/A     76  50  40 S15G21    30.00F
PORT HURON     SUNNY     77  57  50 S17G23    30.08F
TRI CITIES     SUNNY     78  56  46 S20G25    29.99F
MIDLAND        FAIR      78  56  45 S15G24    29.96F
TROY           SUNNY     74  56  53 S12G18    30.09F
SAGINAW HB     SUNNY     77  54  44 S18G25    29.99F
$$
MIZ043>046-050>051-056>058-064>065-071>073-077>080-222000-
SOUTHWEST LOWER MICHIGAN

CITY           SKY/WX    TMP DP  RH WIND       PRES   REMARKS
BATTLE CREEK   CLOUDY    74  59  59 S16       30.00F
BENTON HARBOR  CLOUDY    73  58  59 S15G23    29.95F
BIG RAPIDS     CLOUDY    72  57  59 S7G18     29.93F
COLDWATER      PTSUNNY   74  54  50 S8G20     30.01F
FREMONT        LGT RAIN  66  64  90 SW5       29.93F
HOLLAND        CLOUDY    73  59  61 S14G25    29.95F
GRAND RAPIDS   PTSUNNY   74  60  61 S17       29.96F
IONIA          PTSUNNY   75  57  54 S20G25    29.97F
KALAMAZOO      CLOUDY    73  56  54 S16G22    29.98F
LUDINGTON      LGT RAIN  63  60  87 S15G24    29.90F
MARSHALL       CLOUDY    75  58  55 S15       30.00F
MOUNT PLEASANT SUNNY     79  56  46 S15G23    29.95F
MUSKEGON       LGT RAIN  66  62  87 S18       29.94F
SOUTH HAVEN    CLOUDY    73  58  59 S12G18    29.95F
$$
MIZ016>042-222000-
NORTHERN LOWER MICHIGAN

CITY           SKY/WX    TMP DP  RH WIND       PRES   REMARKS
ALPENA         SUNNY     77  56  48 S14G23    29.95F
BEAVER ISLAND  RAIN      63  59  87 SW13      29.90R
BELLAIRE       LGT RAIN  74  57  54 S12G26    29.87F
CADILLAC       LGT RAIN  67  62  83 SW10      29.93S
CHARLEVOIX     CLOUDY    74  58  57 S7        29.90F
FRANKFORT      HVY RAIN  63  63 100 S8        29.91S
GAYLORD        CLOUDY    73  53  49 S16       29.92F
GRAYLING       MOSUNNY   75  50  41 S16G24    29.94F
HARBOR SPRINGS CLOUDY    76  54  46 SW10G20   29.87F
HOUGHTON LAKE  MOSUNNY   73  51  46 S14G26    29.95F
MANISTEE       RAIN      63  61  93 S7        29.91F
OSCODA         SUNNY     75  51  42 S17G25    29.98F
PELLSTON       MOSUNNY   78  55  44 S16G26    29.88F
ROGERS CITY    SUNNY     77  56  49 S16G22    29.92F
TRAVERSE CITY  LGT RAIN  67  62  84 SW9       29.89R
$$
MIZ007>008-015-222000-
EASTERN UPPER MICHIGAN

CITY           SKY/WX    TMP DP  RH WIND       PRES   REMARKS
KINROSS        CLOUDY    71  56  58 SE16      29.88F
MACKINAC ISLAN MOSUNNY   75  52  43 S7        29.87F
NEWBERRY       LGT RAIN  61  60  97 SW17G28   29.89S
S. S. MARIE    PTSUNNY   70  55  59 SE10      29.88F
MUNISING         N/A     53  53 100 VRB6      29.92R
$$
MIZ004>006-011>014-085-222000-
CENTRAL UPPER MICHIGAN

CITY           SKY/WX    TMP DP  RH WIND       PRES   REMARKS
MANISTIQUE     RAIN      56  51  81 W9G16     29.88S
ESCANABA       LGT RAIN  52  50  93 NW5       29.91R
MENOMINEE      LGT RAIN  52  49  89 W5        29.95R
SAWYER-GWINN   DRIZZLE   48  46  93 W3        29.91S
$$
MIZ001>003-009>011-084-222000-
WESTERN UPPER MICHIGAN

CITY           SKY/WX    TMP DP  RH WIND       PRES   REMARKS
IRON MOUNTAIN  CLOUDY    50  45  83 NW8       29.91F
HOUGHTON       CLOUDY    51  42  71 W12       29.86F
COPPER HARBOR    N/A     51  45  79 VRB5      29.86S
IRONWOOD       CLOUDY    51  39  63 SW12      29.91F
$$

ABBREVIATIONS USED IN REMARKS
   TC - TEMPERATURE IN CELSIUS
  WCI - WIND CHILL INDEX
   HX - HEAT INDEX
  VSB - VISIBILITY





USA.gov is the U.S. government's official web portal to all federal, state and local government web resources and services.